Observations for Trim Market St
| Time | AQI | Temp °C | Hum % | Pres Pa | CO μg/m³ | H₂S μg/m³ | NO μg/m³ | NO₂ μg/m³ | O₃ μg/m³ | SO₂ μg/m³ | PM1 μg/m³ | PM2.5 μg/m³ | PM10 μg/m³ |
|---|---|---|---|---|---|---|---|---|---|---|---|---|---|
| Tuesday 18 August 2026 | |||||||||||||
| 21:19 | 2 | 15.7 | 82 | 2,147,483,647 | 0.37 | 0 | 2.22 | 12.01 | 54.88 | 0 | 2.14 | 3.92 | 7.53 |
| 21:16 | 2 | 15.8 | 81 | 2,147,483,647 | 0.24 | 0 | 2.2 | 12.01 | 58.88 | 0 | 2.14 | 3.46 | 6.41 |
| 21:07 | 2 | 15.9 | 81 | 2,147,483,647 | 0.23 | 0 | 2.2 | 9.97 | 56.78 | 0 | 1.43 | 3.94 | 7.53 |
| 21:06 | 2 | 15.9 | 81 | 2,147,483,647 | 0.23 | 0 | 2.18 | 11.57 | 55.45 | 0 | 2.14 | 3.48 | 8.65 |
| 21:05 | 2 | 15.9 | 81 | 2,147,483,647 | 0.25 | 0 | 2.18 | 14.4 | 56.42 | 0 | 2.14 | 4.42 | 8.09 |
| 21:04 | 2 | 15.9 | 81 | 2,147,483,647 | 0.28 | 0 | 2.22 | 10.65 | 55.88 | 0 | 2.14 | 3.48 | 7.53 |
| 21:03 | 2 | 15.9 | 81 | 2,147,483,647 | 0.32 | 0 | 2.23 | 13.27 | 58.65 | 0 | 2.85 | 4.89 | 8.09 |
| 21:02 | 2 | 15.9 | 81 | 2,147,483,647 | 0.45 | 0 | 2.2 | 15.24 | 55.5 | 0 | 2.85 | 4.42 | 9.22 |
| 21:01 | 2 | 15.9 | 81 | 2,147,483,647 | 0.55 | 0 | 2.18 | 12.29 | 56.11 | 0 | 2.85 | 3.95 | 7.53 |
| 21:00 | 2 | 15.9 | 81 | 2,147,483,647 | 0.53 | 0 | 2.18 | 11.89 | 57.86 | 0 | 2.85 | 3.95 | 6.97 |
| 20:59 | 2 | 15.9 | 81 | 2,147,483,647 | 0.55 | 0 | 2.18 | 17.57 | 59.48 | 0 | 3.56 | 4.43 | 7.53 |
| 20:58 | 2 | 15.9 | 81 | 2,147,483,647 | 0.55 | 0 | 2.18 | 11.93 | 57.89 | 0 | 2.14 | 3.49 | 9.22 |
| 20:57 | 2 | 15.9 | 81 | 2,147,483,647 | 0.56 | 0 | 2.2 | 11.14 | 58.41 | 0 | 2.14 | 3.49 | 6.41 |
| 20:56 | 2 | 15.9 | 81 | 2,147,483,647 | 0.4 | 0 | 2.23 | 10.02 | 59.48 | 0 | 2.85 | 3.96 | 8.09 |
| 20:55 | 2 | 15.9 | 81 | 2,147,483,647 | 0.39 | 0 | 2.22 | 12.52 | 56.68 | 0 | 2.85 | 4.9 | 8.66 |
| 20:54 | 2 | 16 | 81 | 2,147,483,647 | 0.26 | 0 | 2.18 | 11.33 | 60.02 | 0 | 2.85 | 3.97 | 8.1 |
| 20:52 | 2 | 16 | 80 | 2,147,483,647 | 0.32 | 0 | 2.16 | 11.71 | 59.3 | 0 | 3.56 | 4.44 | 10.35 |
| 20:51 | 2 | 16 | 80 | 2,147,483,647 | 0.28 | 0 | 2.16 | 12.81 | 57.41 | 0 | 3.56 | 3.97 | 6.97 |
| 20:50 | 2 | 16 | 80 | 2,147,483,647 | 0.23 | 0 | 2.16 | 13.61 | 58.82 | 0 | 2.14 | 3.04 | 6.97 |
| 20:43 | 2 | 16 | 80 | 2,147,483,647 | 0.43 | 0 | 2.2 | 39.42 | 49.43 | 0 | 2.14 | 4.47 | 8.1 |